(157599) Verdery = 2005 VK93

Discovered at Mount Lemmon on 2005-11-06 by Mt. Lemmon Survey.
(157599) Verdery

Roy Verdery III (b. 1947) is an American physician and scientist. His research includes the effects of caloric restrictions on the crew during a two-year period while they were sealed in Biosphere-2. The results of the research have implications for long duration human space flights. [Ref: WGSBN Bull. 3, #13, 17]

Orbit

Orbit type: Main Belt

Note: WebGL enabled browser required.

epoch2024-03-31.0
epoch JD2460400.5
perihelion date2023-11-17.10532
perihelion JD2460265.60532
argument of perihelion (°)280.44319
ascending node (°)221.32757
inclination (°)11.72944
eccentricity0.1495909
perihelion distance (AU)2.2542423
Tisserand w.r.t. Jupiter3.3
ΔV w.r.t. Earth (km/sec)10.1
semimajor axis (AU)2.6507740
mean anomaly (°)30.80631
mean daily motion (°/day)0.22837300
aphelion distance (AU)3.047
period (years)4.32
P-vector [x]-0.77198030
P-vector [y]0.63312257
P-vector [z]0.05658822
Q-vector [x]-0.62130874
Q-vector [y]-0.73276976
Q-vector [z]-0.27753187
absolute magnitude15.42
phase slope0.15
uncertainty0
referenceMPEC 2024-F74
observations used1134
oppositions19
arc length (days)10017
first opposition used1996
last opposition used2024
residual rms (arc-secs)0.68
perturbers coarse indicatorM-v
perturbers precise indicator003Ek
first observation date used1996-10-17.0
last observation date used2024-03-21.0
computer nameMPCLINUX
JD of orbit computation2456966.850431
perihelion JD uncertainty (days)8.7186E-05
argument of perihelion uncertainty (°)2.6183E-05
ascending node uncertainty (°)1.7948E-05
inclination uncertainty (°)6.0398E-06
eccentricity uncertainty 3.5546E-08
perihelion distance uncertainty (AU)9.2657E-08
Minimum Orbit Intersection Distances (in AU)
for orbit epoch: 2460400.5, reference: E2024-G51
Mercury1.91886
Venus1.56945
Earth1.30133
Mars0.72627
Jupiter2.10242
Saturn6.52358
Uranus16.1622
Neptune26.9843

Observations

1163 total observations over interval: 1996 10 17.36083 – 2024 03 21.228756
These data are available for download (format description).

Date (UT) J2000 RA J2000 Dec Magn Location Ref
1996 10 17.36083 01 44 22.17 +15 39 26.8   691 – Steward Observatory, Kitt Peak-Spacewatch MPS 168853
1996 10 17.38809 01 44 20.75 +15 39 12.6   691 – Steward Observatory, Kitt Peak-Spacewatch MPS 168853
1996 10 17.42185 01 44 19.01 +15 38 55.6 19.4 V 691 – Steward Observatory, Kitt Peak-Spacewatch MPS 168853
1997 02 01.09150 01 51 38.20 +09 29 36.6 20.5 V 691 – Steward Observatory, Kitt Peak-Spacewatch MPS 168853
1997 02 01.10334 01 51 38.96 +09 29 39.4 20.4 V 691 – Steward Observatory, Kitt Peak-Spacewatch MPS 168853
1997 02 01.11354 01 51 39.66 +09 29 41.3 20.8 V 691 – Steward Observatory, Kitt Peak-Spacewatch MPS 168853
2000 09 23.27175 23 43 29.02 +11 07 11.7 19.7   704 – Lincoln Laboratory ETS, New Mexico MPS 168853
2000 09 23.28622 23 43 28.18 +11 07 03.9 19.6   704 – Lincoln Laboratory ETS, New Mexico MPS 168853
2000 09 23.30067 23 43 27.56 +11 06 58.1 19.2   704 – Lincoln Laboratory ETS, New Mexico MPS 168853
2000 09 23.31508 23 43 26.81 +11 06 50.4 19.6   704 – Lincoln Laboratory ETS, New Mexico MPS 168853
2001 12 19.37664 07 51 31.72 +03 30 32.8 18.6   704 – Lincoln Laboratory ETS, New Mexico MPS 168853
2001 12 19.39229 07 51 31.18 +03 30 28.0 18.8   704 – Lincoln Laboratory ETS, New Mexico MPS 168853
2001 12 19.40797 07 51 30.57 +03 30 22.4 18.8   704 – Lincoln Laboratory ETS, New Mexico MPS 168853
2001 12 19.43941 07 51 29.45 +03 30 11.4 19.3   704 – Lincoln Laboratory ETS, New Mexico MPS 168853
2003 07 08.27429 16 22 25.45 -11 05 52.1 19.9   644 – Palomar Mountain/NEAT MPS 168853
2003 07 08.29554 16 22 24.91 -11 05 50.9 20.0   644 – Palomar Mountain/NEAT MPS 168853
2003 07 08.31677 16 22 24.42 -11 05 49.7 19.7   644 – Palomar Mountain/NEAT MPS 168853
2004 08 12.35572 22 16 34.17 +06 36 31.2 19.6   644 – Palomar Mountain/NEAT MPS 168853
2004 08 12.37633 22 16 33.21 +06 36 27.1 19.8   644 – Palomar Mountain/NEAT MPS 168853
2004 08 12.40529 22 16 31.87 +06 36 21.1 19.9   644 – Palomar Mountain/NEAT MPS 168853
2004 09 12.283587 21 52 49.098 +03 38 28.36 20.10 V 645 – Apache Point-Sloan Digital Sky Survey MPS 390071
2004 09 12.287059 21 52 48.956 +03 38 26.91 20.98   645 – Apache Point-Sloan Digital Sky Survey MPS 390071
2004 10 10.153257 21 41 42.773 +00 24 00.97 20.51 V 645 – Apache Point-Sloan Digital Sky Survey MPS 390071
2004 10 10.156729 21 41 42.747 +00 23 59.68 21.32   645 – Apache Point-Sloan Digital Sky Survey MPS 390071
2005 10 01.36446 04 53 31.19 +19 28 58.2 19.2   704 – Lincoln Laboratory ETS, New Mexico MPS 152346
2005 10 01.37523 04 53 31.52 +19 28 56.4 19.7   704 – Lincoln Laboratory ETS, New Mexico MPS 152346
2005 10 01.38616 04 53 31.80 +19 28 53.3 19.0   704 – Lincoln Laboratory ETS, New Mexico MPS 152346
2005 10 01.39686 04 53 32.10 +19 28 50.7 19.7   704 – Lincoln Laboratory ETS, New Mexico MPS 152346
2005 10 01.40755 04 53 32.30 +19 28 47.8 20.1   704 – Lincoln Laboratory ETS, New Mexico MPS 152346
2005 10 28.31823 04 55 04.64 +17 03 22.4 19.7   704 – Lincoln Laboratory ETS, New Mexico MPS 152346
2005 10 28.33071 04 55 04.43 +17 03 17.5 20.3   704 – Lincoln Laboratory ETS, New Mexico MPS 152346
2005 10 28.35774 04 55 03.82 +17 03 07.1 20.1   704 – Lincoln Laboratory ETS, New Mexico MPS 152346
2005 10 28.36969 04 55 03.47 +17 03 02.5 20.2   704 – Lincoln Laboratory ETS, New Mexico MPS 152346
2005 11 02.32919 04 53 02.43 +16 29 30.6 18.8 V 703 – Catalina Sky Survey MPS 152346
2005 11 02.33571 04 53 02.18 +16 29 28.0 18.5 V 703 – Catalina Sky Survey MPS 152346
2005 11 02.34220 04 53 02.04 +16 29 25.9 18.7 V 703 – Catalina Sky Survey MPS 152346
2005 11 02.34871 04 53 01.86 +16 29 21.8 18.8 V 703 – Catalina Sky Survey MPS 152346
2005 11 06.32564 04 50 54.98 +16 01 22.6 19.0   704 – Lincoln Laboratory ETS, New Mexico MPS 152346
2005 11 06.33869 04 50 54.51 +16 01 16.4 19.4   704 – Lincoln Laboratory ETS, New Mexico MPS 152346
2005 11 06.35098 04 50 54.04 +16 01 11.1 19.4   704 – Lincoln Laboratory ETS, New Mexico MPS 152346
2005 11 06.36358 04 50 53.55 +16 01 06.9 19.6   704 – Lincoln Laboratory ETS, New Mexico MPS 152346
2005 11 06.36483 04 50 53.52 +16 01 05.2 18.5 V G96 – Mt. Lemmon Survey MPS 151250
2005 11 06.37148 04 50 53.30 +16 01 02.2 18.0 V G96 – Mt. Lemmon Survey MPS 151250
2005 11 06.37594 04 50 53.10 +16 01 00.5 19.6   704 – Lincoln Laboratory ETS, New Mexico MPS 152346
2005 11 06.37810 04 50 53.05 +16 00 59.4 18.4 V G96 – Mt. Lemmon Survey MPS 151250
2005 11 06.38473 04 50 52.80 +16 00 56.7 18.4 V G96 – Mt. Lemmon Survey MPS 151250
2005 11 06.45613 04 50 50.15 +16 00 26.3 19.0 V 691 – Steward Observatory, Kitt Peak-Spacewatch MPS 152346
2005 11 06.47376 04 50 49.48 +16 00 18.3 19.1 V 691 – Steward Observatory, Kitt Peak-Spacewatch MPS 152346
2005 11 06.49484 04 50 48.71 +16 00 09.2 19.1 V 691 – Steward Observatory, Kitt Peak-Spacewatch MPS 152346
2005 11 10.40730 04 48 19.30 +15 31 48.8 19.0 V 691 – Steward Observatory, Kitt Peak-Spacewatch MPS 151250
2005 11 10.42513 04 48 18.54 +15 31 41.1 19.1 V 691 – Steward Observatory, Kitt Peak-Spacewatch MPS 151250
2005 11 10.44290 04 48 17.77 +15 31 32.9 19.1 V 691 – Steward Observatory, Kitt Peak-Spacewatch MPS 151250
2005 11 21.24041 04 39 45.02 +14 11 26.8 18.2 R 699 – Lowell Observatory-LONEOS MPS 151250
2005 11 21.25871 04 39 44.13 +14 11 18.9   699 – Lowell Observatory-LONEOS MPS 151250
2005 11 21.29531 04 39 42.06 +14 11 02.3   699 – Lowell Observatory-LONEOS MPS 151250
2005 11 25.32741 04 36 02.80 +13 41 19.9 17.8 V 703 – Catalina Sky Survey MPS 152346
2005 11 25.33772 04 36 02.23 +13 41 15.3 18.0 V 703 – Catalina Sky Survey MPS 152346
2005 11 25.34795 04 36 01.58 +13 41 11.0 17.9 V 703 – Catalina Sky Survey MPS 152346
2005 11 25.35814 04 36 01.08 +13 41 06.7 17.7 V 703 – Catalina Sky Survey MPS 152346
2005 11 29.31941 04 32 17.80 +13 12 35.7 18.0 V 703 – Catalina Sky Survey MPS 155416
2005 11 29.32542 04 32 17.48 +13 12 32.9 17.8 V 703 – Catalina Sky Survey MPS 155416
2005 11 29.33147 04 32 17.12 +13 12 30.3 17.9 V 703 – Catalina Sky Survey MPS 155416
2005 11 29.33756 04 32 16.26 +13 12 25.8 16.2 V 703 – Catalina Sky Survey MPS 155416
2005 11 30.26009 04 31 24.33 +13 05 57.4 18.7   704 – Lincoln Laboratory ETS, New Mexico MPS 152346
2005 11 30.27422 04 31 23.44 +13 05 51.1 18.8   704 – Lincoln Laboratory ETS, New Mexico MPS 152346
2005 11 30.28698 04 31 22.74 +13 05 46.0 18.8   704 – Lincoln Laboratory ETS, New Mexico MPS 152346
2005 11 30.29964 04 31 21.97 +13 05 40.9 18.7   704 – Lincoln Laboratory ETS, New Mexico MPS 152346
2005 11 30.31229 04 31 21.23 +13 05 35.3 18.8   704 – Lincoln Laboratory ETS, New Mexico MPS 152346
2005 11 30.32457 04 31 20.56 +13 05 30.4 18.2 R 644 – Palomar Mountain/NEAT MPS 153885
2005 11 30.35139 04 31 18.97 +13 05 19.0 18.1 R 644 – Palomar Mountain/NEAT MPS 153885
2005 11 30.38474 04 31 17.02 +13 05 04.9 18.1 R 644 – Palomar Mountain/NEAT MPS 153885
2005 12 01.25417 04 30 27.55 +12 59 01.8 18.9   704 – Lincoln Laboratory ETS, New Mexico MPS 153885
2005 12 01.26769 04 30 26.74 +12 58 55.9 18.8   704 – Lincoln Laboratory ETS, New Mexico MPS 153885
2005 12 01.28091 04 30 25.97 +12 58 50.3 18.8   704 – Lincoln Laboratory ETS, New Mexico MPS 153885
2005 12 01.29391 04 30 25.19 +12 58 45.0 18.9   704 – Lincoln Laboratory ETS, New Mexico MPS 153885
2005 12 01.30683 04 30 24.44 +12 58 39.6 18.8   704 – Lincoln Laboratory ETS, New Mexico MPS 153885
2005 12 01.32902 04 30 23.14 +12 58 28.7 17.6 V 703 – Catalina Sky Survey MPS 152346
2005 12 01.33843 04 30 22.57 +12 58 26.6 17.8 V 703 – Catalina Sky Survey MPS 152346
2005 12 01.34785 04 30 21.99 +12 58 22.4 17.9 V 703 – Catalina Sky Survey MPS 152346
2005 12 01.35723 04 30 21.42 +12 58 18.7 18.0 V 703 – Catalina Sky Survey MPS 152346
2005 12 02.26434 04 29 29.79 +12 52 03.5 18.8   704 – Lincoln Laboratory ETS, New Mexico MPS 153885
2005 12 02.27741 04 29 29.01 +12 51 58.1 18.8   704 – Lincoln Laboratory ETS, New Mexico MPS 153885
